Location: Dodge City Co - Operative Exchange Grain Elevator Number 8
(38.1218°N, 99.7124°W)
Time: 07:02:26
(UTC+00:00)

Cosmos 2360 Rocket - Pass Details

Date: 03 March 2021
Orbit: 832 x 846 km, 71.0° (Epoch: 13 April)

Event Time Altitude Azimuth Distance (km) Brightness Sun altitude
Rises 12:16:07 0° 329° (NNW) 3,412 5.1 -10.9°
Reaches altitude 10° 12:18:42 10° 322° (NW) 2,473 4.3 -10.4°
Maximum altitude 12:23:56 40° 255° (WSW) 1,233 2.6 -9.3°
Drops below altitude 10° 12:29:09 10° 187° (S) 2,456 4.6 -8.3°
Sets 12:31:43 0° 180° (S) 3,386 5.4 -7.8°
